Location: *
(45.0167°N, 11.7333°E)
Time: 14:04:14
(UTC+00:00)

Daily predictions for brighter satellites

Satellite Brightness Start Highest point End
(mag) Time Altitude Azimuth Time Altitude Azimuth Time Altitude Azimuth
Ariane Rocket 3.4 17:59:35 10° SE 18:04:24 46° ENE 18:09:14 10° N
STARLINK-1240 3.6 18:00:48 10° SW 18:04:49 66° SE 18:08:51 10° ENE
SJ-6B 4.2 18:02:42 10° ESE 18:05:57 24° ENE 18:09:15 10° NNE
STARLINK-1082 3.8 18:02:01 10° NW 18:06:03 60° NNE 18:10:04 10° ESE
Cosmos 1733 3.5 18:02:53 10° SSE 18:06:27 43° E 18:10:02 10° NNE
Meteor 1-22 Rocket 4.2 18:03:37 10° S 18:08:44 51° E 18:13:51 10° NNE
ARGOS Delta rocket 4.3 18:04:37 10° SSE 18:09:32 50° ENE 18:14:42 10° N
STARLINK-1216 3.5 18:05:31 10° SW 18:09:33 72° SE 18:13:35 10° ENE
STARLINK-1100 3.7 18:06:52 10° NW 18:10:54 64° NNE 18:14:57 10° ESE
Cosmos 1674 2.7 18:07:09 10° N 18:10:56 87° WSW 18:14:39 10° S
Cosmos 1110 Rocket 4.0 18:05:47 10° NNW 18:11:03 72° ENE 18:16:15 10° SSE
Cosmos 1553 Rocket 4.1 18:05:26 10° S 18:11:30 85° W 18:17:38 10° N
Cosmos 2219 Rocket 4.2 18:06:56 10° WSW 18:11:58 32° NW 18:17:01 10° N
NOSS 2-1 (E) 4.5 18:08:54 10° WSW 18:12:07 39° NW 18:15:40 10° NNE
STARLINK-1237 3.5 18:10:16 10° SW 18:14:18 78° SE 18:18:22 10° ENE
STARLINK-1083 3.7 18:11:36 10° NW 18:15:40 68° NNE 18:19:43 10° ESE
Cosmos 1939 Rocket 4.2 18:13:07 10° S 18:16:55 43° W 18:20:41 10° NNW
STARLINK-1209 3.9 18:14:25 10° W 18:17:13 41° NNW 18:20:02 10° NE
KORONAS-FOTON 4.0 18:14:06 10° NNW 18:17:56 78° W 18:21:43 10° S
Cosmos 1943 Rocket 3.3 18:14:01 10° N 18:18:35 25° NE 18:23:02 10° ESE
STARLINK-1202 3.5 18:14:58 10° SW 18:19:02 84° SE 18:23:06 10° ENE
STARLINK-1228 4.0 18:16:39 10° W 18:19:23 39° NNW 18:22:08 10° NE
ATLAS 2AS CENTAUR R/B 4.5 18:13:55 10° NNW 18:19:50 23° NNE 18:25:28 10° ENE
STARLINK-1125 3.6 18:16:09 10° NW 18:20:14 72° NNE 18:24:07 11° ESE
SL-14 R/B 3.7 18:18:07 10° N 18:22:02 45° ENE 18:25:53 10° SSE
Cosmos 1980 4.4 18:17:29 10° SW 18:23:06 61° WNW 18:28:44 10° NNE
SL-8 R/B 4.2 18:20:00 10° W 18:24:42 56° N 18:29:25 10° ENE
STARLINK-1109 3.6 18:20:54 10° NW 18:25:00 77° NNE 18:28:41 12° ESE
STARLINK-1246 3.6 18:22:01 10° WSW 18:26:07 88° NNW 18:30:14 10° ENE
Cosmos 2315 Rocket 4.3 18:21:45 10° SSE 18:27:44 48° E 18:33:47 10° NNE
Cosmos 1766 3.6 18:24:11 10° SSW 18:28:09 70° W 18:32:09 10° N
STARLINK-1091 3.6 18:25:43 10° WNW 18:29:48 82° NNE 18:33:19 14° ESE
Orbus 7S? 4.2 18:27:45 10° WNW 18:30:18 28° SW 18:32:28 10° SSE
ADEOS Rocket 3.9 18:25:15 10° N 18:31:55 59° WNW 18:37:53 10° SSW
STARLINK-1201 3.9 18:28:50 10° WSW 18:32:00 47° NNW 18:35:11 10° NE
USA 234 3.5 18:25:45 10° ENE 18:32:01 47° SE 18:38:15 10° SSW
STARLINK-1066 3.3 18:28:59 10° WNW 18:32:06 58° SW 18:34:49 13° SE
STARLINK-1081 3.3 18:29:29 10° WNW 18:32:33 57° SW 18:35:12 13° SE
Meteor 2-8 Rocket 4.4 18:26:40 10° S 18:32:48 79° E 18:38:57 10° N
STARLINK-1070 3.3 18:29:56 10° WNW 18:33:00 57° SW 18:35:38 13° SE
STARLINK-1224 3.7 18:29:16 10° WSW 18:33:20 79° NNW 18:37:25 10° NE
STARLINK-1069 3.3 18:30:21 10° WNW 18:33:28 56° SW 18:36:06 13° SE
STARLINK-1085 3.4 18:30:48 10° WNW 18:33:54 56° SW 18:36:32 13° SE
STARLINK-1086 3.4 18:31:17 10° WNW 18:34:21 55° SW 18:36:56 13° SE
H-2A R/B 2.1 18:29:12 10° SSE 18:34:29 70° ENE 18:39:39 10° N
Cosmos 1626 2.1 18:30:53 10° N 18:34:34 58° E 18:38:12 10° SSE
STARLINK-1095 3.4 18:31:44 10° WNW 18:34:49 54° SW 18:37:22 14° SE
STARLINK-1203 3.7 18:31:00 10° WSW 18:34:58 72° NNW 18:38:57 10° NE
STARLINK-1077 3.4 18:32:11 10° WNW 18:35:15 54° SW 18:37:48 14° SE
HJ-1C 4.2 18:32:24 10° S 18:35:39 52° W 18:38:58 10° NNW
STARLINK-1075 3.4 18:32:39 10° WNW 18:35:42 53° SW 18:38:14 14° SE
STARLINK-1093 3.4 18:33:04 10° WNW 18:36:09 53° SW 18:38:42 14° SE
STARLINK-1074 3.5 18:33:30 10° WNW 18:36:36 53° SW 18:39:08 14° SE
SL-16 R/B 2.2 18:31:22 10° SSW 18:36:57 65° ESE 18:42:34 10° NNE
STARLINK-1087 3.5 18:34:00 10° WNW 18:37:03 52° SW 18:39:31 14° SE
STARLINK-1088 3.5 18:34:27 10° WNW 18:37:30 51° SW 18:39:58 14° SE
STARLINK-1115 3.5 18:34:52 10° WNW 18:37:57 51° SW 18:40:27 14° SE
STARLINK-1225 3.8 18:33:54 10° WSW 18:37:58 74° NNW 18:42:03 10° NE
STARLINK-1076 3.5 18:35:20 10° WNW 18:38:24 50° SW 18:40:53 14° SE
STARLINK-1092 3.5 18:35:47 10° WNW 18:38:51 50° SW 18:41:18 14° SE
SL-08 RB Rocket 4.1 18:34:52 10° SE 18:39:09 45° ENE 18:43:30 10° N
STARLINK-1080 3.5 18:36:16 10° WNW 18:39:18 49° SW 18:41:42 15° SE
STARLINK-1090 3.6 18:36:43 10° WNW 18:39:45 49° SW 18:42:08 15° SE
STARLINK-1072 3.5 18:36:02 10° WNW 18:40:05 84° SW 18:43:08 17° SE
STARLINK-1089 3.6 18:37:09 10° WNW 18:40:11 48° SW 18:42:33 15° SSE
STARLINK-1107 3.6 18:37:38 10° WNW 18:40:39 48° SW 18:43:00 15° SSE
Resurs 01 Rocket 3.0 18:38:54 16° ESE 18:41:02 22° ENE 18:44:24 10° NNE
TSX-5 4.5 18:36:09 10° NNW 18:41:27 52° NE 18:44:38 17° SE
STARLINK-1230 3.8 18:38:40 10° WSW 18:42:43 69° NNW 18:46:48 10° NE
STARLINK-1096 3.6 18:40:23 10° WNW 18:44:26 79° SW 18:47:19 18° SE
Meteor 2-15 4.5 18:38:37 10° S 18:44:30 57° E 18:50:25 10° NNE
STARLINK-1144 4.5 18:41:17 10° NW 18:45:13 39° NNE 18:47:59 17° E
FREGAT/IRIS 2.2 18:42:31 10° SSE 18:45:13 87° E 18:47:58 10° N
STARLINK-1233 4.3 18:42:32 10° W 18:45:28 36° NNW 18:48:26 10° NE
STARLINK-1212 4.3 18:43:01 10° W 18:45:56 36° NNW 18:48:52 10° NE
STARLINK-1105 4.3 18:43:27 10° W 18:46:22 36° NNW 18:49:20 10° NE
STARLINK-1206 4.3 18:43:57 10° W 18:46:52 35° NNW 18:49:47 10° NE
STARLINK-1247 4.4 18:44:24 10° W 18:47:18 35° NNW 18:50:13 10° NE
STARLINK-1243 3.9 18:43:30 10° WSW 18:47:33 65° NNW 18:51:37 10° NE
STARLINK-1227 4.4 18:44:49 10° W 18:47:44 35° NNW 18:50:41 10° NE
STARLINK-1218 4.4 18:45:19 10° W 18:48:12 35° NNW 18:51:07 10° NE
Abrixas rocket 2.8 18:45:41 10° SSW 18:48:21 31° SSE 18:49:06 27° ESE
Cosmos 1302 Rocket 4.0 18:43:09 10° NNW 18:48:27 73° ENE 18:53:40 10° SSE
STARLINK-1226 4.4 18:45:45 10° W 18:48:39 34° NNW 18:51:35 10° NE
STARLINK-1254 4.4 18:46:11 10° W 18:49:06 34° NNW 18:52:02 10° NE
STARLINK-1079 3.6 18:45:26 10° WNW 18:49:28 73° SW 18:52:10 20° SE
STARLINK-1215 4.4 18:46:41 10° W 18:49:34 34° NNW 18:52:28 10° NE
Cosmos 1953 3.2 18:47:34 16° SE 18:49:53 28° E 18:53:18 10° NNE
STARLINK-1231 4.4 18:47:07 10° W 18:50:01 34° NNW 18:52:54 10° NE
STARLINK-1103 4.4 18:46:15 10° NW 18:50:12 41° NNE 18:52:45 19° E
STARLINK-1232 4.4 18:48:02 10° W 18:50:55 33° NNW 18:53:49 10° NE
STARLINK-1217 4.4 18:48:30 10° W 18:51:22 33° NNW 18:54:15 10° NE
Cosmos 1709 Rocket 3.9 18:45:16 10° N 18:51:31 84° E 18:57:39 10° S
STARLINK-1208 4.5 18:48:55 10° W 18:51:48 33° NNW 18:54:43 10° NE
STARLINK-1229 4.5 18:49:24 10° W 18:52:16 33° NNW 18:55:09 10° NE
STARLINK-1236 4.1 18:48:18 10° WSW 18:52:20 61° NNW 18:56:24 10° NE
STARLINK-1271 4.5 18:49:51 10° W 18:52:43 33° NNW 18:55:37 10° NE
STARLINK-1270 4.5 18:50:20 10° W 18:53:11 33° NNW 18:56:04 10° NE
STARLINK-1154 4.5 18:50:46 10° W 18:53:39 32° NNW 18:56:31 10° NE
MONITOR-E 3.9 18:51:13 11° S 18:53:46 73° W 18:56:24 10° NNW
Cosmos 1269 Rocket 4.2 18:48:34 10° SSW 18:53:50 76° WNW 18:59:10 10° NNE
STARLINK-1116 3.7 18:49:52 10° WNW 18:53:53 67° SW 18:56:26 21° SE
STARLINK-1101 4.3 18:51:14 10° NW 18:55:12 43° NNE 18:57:32 21° E
SL-24 R/B 4.3 18:53:32 10° NNE 18:57:56 46° E 19:01:47 10° S
Cosmos 1603 4.5 18:54:18 10° SSE 18:59:01 28° ESE 19:03:43 10° NE
STARLINK-1102 4.3 18:56:12 10° NW 19:00:12 45° NNE 19:02:19 24° E
ISS -2.6 18:58:06 10° NW 19:01:13 34° NNE 19:02:41 23° ENE
Cosmos 2251 Rocket 4.0 18:56:35 10° SSE 19:01:28 37° ESE 19:06:23 10° NE
Cosmos 1455 Rocket 4.1 18:57:18 10° SSW 19:01:29 47° WNW 19:05:43 10° N
STARLINK-1269 4.3 18:58:12 10° WSW 19:02:12 54° NNW 19:06:13 10° NE
Cosmos 2297 3.9 18:57:14 10° NNW 19:02:54 72° WSW 19:08:34 10° SSE
STARLINK-1094 3.9 18:59:09 10° WNW 19:03:08 57° SW 19:05:21 24° SSE
BREEZE-M DEB (TANK) 4.4 18:56:05 10° WNW 19:03:26 50° N 19:05:20 22° ENE
Cosmos 2074 Rocket 4.4 18:58:24 10° N 19:04:23 44° ENE 19:08:16 21° SE
Cosmos 2084 Rocket 4.1 19:00:47 10° NNW 19:05:04 43° NE 19:06:58 28° E
STARLINK-1111 4.2 19:01:11 10° NW 19:05:12 48° NNE 19:07:06 27° E
Cosmos 2237 Rocket 4.1 19:01:49 10° WSW 19:06:48 32° NW 19:11:50 10° N
STARLINK-1200 4.4 19:03:03 10° WSW 19:07:02 51° NNW 19:10:50 11° NE
STARLINK-1117 4.1 19:04:01 10° WNW 19:07:58 53° SW 19:10:01 25° SSE
CZ-2C R/B 2.9 19:04:42 10° NNE 19:09:37 42° E 19:14:07 12° SSE
STARLINK-1073 4.1 19:06:10 10° NW 19:10:13 50° NNE 19:11:53 30° E
Cosmos 1626 Rocket 3.6 19:05:54 10° N 19:10:19 80° W 19:14:40 10° S
STARLINK-1192 4.5 19:07:50 10° W 19:11:48 48° NNW 19:15:24 12° NE
STARLINK-1078 4.2 19:08:28 10° WNW 19:12:23 49° SW 19:14:17 27° SSE
BREEZE-M DEB (TANK) 4.3 19:05:06 10° WNW 19:13:14 30° WSW 19:15:44 14° S
ARGOS 3.6 19:09:33 10° S 19:14:55 64° WSW 19:20:17 10° NNW
STARLINK-1121 4.0 19:11:07 10° NW 19:15:12 54° NNE 19:16:39 34° E
Cosmos 292 Rocket 3.9 19:12:00 10° NNW 19:16:43 54° ENE 19:18:32 34° SE
STARLINK-1108 4.3 19:13:21 10° WNW 19:17:14 45° SW 19:18:58 27° SSE
Cosmos 1602 Rocket 3.6 19:13:51 10° N 19:18:20 85° W 19:21:45 17° S
IRIDIUM 104 4.2 19:14:30 10° N 19:19:45 72° E 19:23:42 18° SSE
STARLINK-1106 3.9 19:16:04 10° NW 19:20:09 57° NNE 19:21:25 39° E
STARLINK-1071 4.5 19:18:02 10° WNW 19:21:53 41° SW 19:23:26 28° S
USA 186 3.8 19:19:16 10° SSW 19:22:21 31° W 19:25:25 10° NNW
MOS 1 Rocket 3.6 19:18:49 10° NNE 19:24:01 60° E 19:29:21 10° S
STARLINK-1112 3.8 19:21:04 10° NW 19:25:11 61° NNE 19:26:14 44° E
MetOp-A 4.1 19:21:25 17° SSE 19:25:34 89° WSW 19:30:58 10° NNW
CZ-2C R/B 4.0 19:22:36 10° S 19:27:26 44° W 19:32:05 10° NNW
IRIDIUM 114 4.2 19:23:39 10° N 19:28:55 86° E 19:32:51 18° S
STARLINK-1128 3.7 19:26:02 10° NW 19:30:10 65° NNE 19:31:01 50° E
Cosmos 1470 3.9 19:27:23 10° SSW 19:31:05 43° WNW 19:34:50 10° N
Cosmos 1437 4.1 19:29:43 10° N 19:31:24 27° NNE 19:31:24 27° NNE
SPOT 3 Rocket 3.8 19:29:48 16° S 19:34:04 69° WSW 19:39:16 10° NNW
STARLINK-1113 3.6 19:31:00 10° NW 19:35:09 69° NNE 19:35:47 58° E
Cosmos 1825 Rocket 3.5 19:33:02 10° N 19:37:26 60° E 19:37:53 56° ESE
IRIDIUM 103 4.4 19:32:50 10° N 19:38:05 79° W 19:42:00 18° S
STARLINK-1119 3.5 19:35:59 10° NW 19:40:08 74° NNE 19:40:34 66° E
Cosmos 2369 Rocket 2.1 19:35:39 10° NNW 19:41:22 76° ENE 19:43:14 44° SE
Cosmos 1726 2.0 19:42:56 77° NE 19:42:56 77° NE 19:46:31 10° N
STARLINK-1114 3.5 19:40:59 10° NW 19:45:10 80° NNE 19:45:24 75° ENE
Aureole 2 Rocket 2.6 19:42:49 10° NNW 19:45:56 68° NNW 19:45:56 68° NNW
Cosmos 1758 Rocket 3.4 19:42:49 10° N 19:47:12 90° ENE 19:47:54 63° S
Cosmos 2263 4.2 19:41:48 10° NNW 19:47:24 62° ENE 19:48:35 50° ESE
NOSS 3-3 (A) 3.8 19:42:38 10° SSW 19:48:22 68° ESE 19:54:51 10° NE
NOSS 3-3 (C) 3.8 19:42:44 10° SSW 19:48:29 67° ESE 19:54:57 10° NE
STARLINK-1130 (DARKSAT) 3.5 19:45:58 10° WNW 19:50:07 85° NNE 19:50:09 85° NE
Meteor 2-17 Rocket 4.5 19:46:20 10° N 19:52:24 60° ENE 19:53:46 49° SE
Terra 3.7 19:53:53 17° NE 19:53:53 17° NE 19:56:09 10° NNE
Cosmos 1953 Rocket 3.7 19:49:18 10° N 19:53:22 58° NE 19:53:22 58° NE
STARLINK-1084 3.6 19:50:55 10° WNW 19:54:56 83° WNW 19:54:56 83° WNW
Spot 2 Rocket 3.5 19:55:41 59° E 19:56:08 62° ENE 20:01:12 10° N
Cosmos 2184 Rocket 4.0 19:50:02 10° N 19:56:23 82° W 19:59:37 31° S
Cosmos 1606 Rocket 3.4 19:59:07 80° NE 19:59:07 80° NE 20:03:24 10° N
STARLINK-1098 3.7 19:55:55 10° WNW 19:59:43 73° W 19:59:43 73° W
SPOT 1/Viking Rocket 4.0 20:00:50 45° ENE 20:00:50 45° ENE 20:05:37 10° N
Cosmos 1943 Rocket 2.6 19:57:15 10° NNW 20:02:41 57° WSW 20:04:35 38° SSW
Cosmos 1943 3.0 20:01:03 35° S 20:03:27 72° ESE 20:09:08 10° NNE
STARLINK-1123 3.9 20:00:54 10° WNW 20:04:30 64° W 20:04:30 64° W
Meteor 2-10 4.4 20:00:44 13° SSW 20:05:26 68° WNW 20:10:58 10° N
SL-8 R/B 3.6 20:02:47 10° WNW 20:07:34 77° NNE 20:07:34 77° NNE
STARLINK-1097 4.2 20:05:52 10° WNW 20:09:16 56° W 20:09:16 56° W
ATLAS 2AS CENTAUR R/B 3.1 20:05:14 10° NNW 20:12:43 52° NE 20:14:21 45° E
STARLINK-1099 4.4 20:10:52 10° WNW 20:14:04 49° W 20:14:04 49° W
USA 234 3.6 20:08:43 10° NE 20:15:09 62° NNW 20:21:35 10° WSW
USA 245 3.9 20:15:17 83° E 20:15:20 83° ENE 20:21:08 10° NNW
Resurs 01 Rocket 2.6 20:16:28 37° SW 20:17:16 40° W 20:21:27 10° NNW
Cosmos 2154 Rocket 3.9 20:11:06 10° N 20:17:30 87° W 20:18:59 56° S
SL-16 R/B 4.5 20:17:04 10° WSW 20:21:34 24° NW 20:26:05 10° N
Cosmos 2228 3.6 20:22:39 53° NW 20:22:39 53° NW 20:26:24 10° N
Cosmos 962 Rocket 4.3 20:25:33 10° N 20:31:43 77° ENE 20:31:43 77° ENE
Nadezhda 1 Rocket 4.3 20:29:47 31° SSW 20:32:56 66° W 20:39:18 10° N
SL-8 Rocket 4.3 20:31:30 10° N 20:37:01 55° NE 20:37:01 55° NE
ISS -0.8 20:34:52 10° WNW 20:35:39 16° WNW 20:35:39 16° WNW
SPOT 5 4.2 20:44:25 30° N 20:44:25 30° N 20:46:44 10° N
ERS-1 Rocket 3.7 20:48:37 50° NNW 20:48:37 50° NNW 20:52:21 10° NNW
CZ-2C R/B 4.5 20:45:24 10° N 20:49:43 27° WNW 20:54:00 10° WSW
Cosmos 1656 Rocket 4.4 20:57:22 10° NW 21:02:03 48° W 21:02:03 48° W
Aureole 1 Rocket 4.4 21:01:50 47° SW 21:04:18 73° WNW 21:10:56 10° NNE
COSMOS 2455 3.6 21:10:39 10° NNW 21:15:09 49° N 21:15:09 49° N
Cosmos 2369 Rocket 4.3 21:21:12 10° WNW 21:24:41 17° W 21:25:03 17° WSW
Terra 3.8 21:32:45 26° NNW 21:32:45 26° NNW 21:34:55 10° NNW
NOSS 3-4 (A) 4.1 21:24:07 10° NW 21:30:09 63° WNW 21:30:09 63° WNW
NOSS 3-4 (C) 4.1 21:24:12 10° NW 21:30:14 63° WNW 21:30:14 63° WNW
ATLAS 2AS CENTAUR R/B 3.9 21:56:40 10° NW 22:01:48 36° W 22:01:48 36° W
Cosmos 1980 Rocket 4.3 22:33:07 10° N 22:35:28 22° N 22:35:28 22° N
CZ-4C R/B 3.9 22:32:43 10° NNW 22:38:44 37° NNE 22:38:44 37° NNE
SL-16 R/B 4.0 23:52:44 31° NE 23:52:44 31° NE 23:57:00 10° N
